Location: Bastrop State Park
(30.1090°N, 97.2819°W)
Time: 21:54:15
(UTC-06:00)

Daily predictions for brighter satellites

Satellite Brightness Start Highest point End
(mag) Time Altitude Azimuth Time Altitude Azimuth Time Altitude Azimuth
Tsikada Rocket 4.0 17:45:10 10° N 17:51:21 83° E 17:57:32 10° S
Ariane Rocket 3.0 17:49:36 10° SSE 17:54:38 66° ENE 17:59:40 10° N
Cosmos 1703 Rocket 3.9 17:52:05 10° SSE 17:56:21 45° E 18:00:37 10° NNE
MTI 4.5 17:54:47 10° NNE 17:57:45 34° E 18:00:43 10° SSE
Tiangong 1 2.5 17:58:50 10° S 18:00:46 18° SE 18:02:40 10° E
CZ-2C R/B 3.7 17:58:02 10° NNE 18:02:32 78° ESE 18:07:07 10° S
Cosmos 304 Rocket 3.9 17:57:58 10° N 18:02:39 52° ENE 18:07:17 10° SSE
USA 234 3.3 17:57:16 10° NE 18:03:48 71° SE 18:10:18 10° SSW
Cosmos 841 Rocket 3.8 18:02:22 10° N 18:07:24 44° ENE 18:12:24 10° SE
COSMOS 2406 4.2 18:06:51 10° NNW 18:12:23 52° WSW 18:17:51 10° S
CSL-04 Debris 4.4 18:09:49 10° S 18:15:15 76° WSW 18:20:40 10° NNW
Cosmos 1633 3.3 18:12:00 10° NNE 18:15:20 32° E 18:18:39 10° SE
Okean 2 Rocket 4.3 18:12:58 10° NNE 18:16:26 21° ENE 18:19:52 10° SE
Cosmos 1464 Rocket 4.1 18:14:12 10° SSE 18:20:06 54° E 18:26:03 10° NNE
Meteor 1-14 Rocket 4.3 18:19:37 10° N 18:25:15 84° W 18:30:47 10° S
Cosmos 2369 Rocket 4.1 18:25:07 10° ESE 18:25:18 10° ESE 18:25:18 10° ESE
Cosmos 1908 Rocket 3.5 18:23:23 10° N 18:27:43 89° W 18:32:03 10° S
Cosmos 2297 3.7 18:22:51 10° SSW 18:28:33 89° NW 18:34:18 10° NNE
Cosmos 1354 Rocket 4.0 18:23:24 10° SSW 18:28:41 87° WNW 18:33:59 10° NNE
SKYMED 2 3.5 18:24:41 10° NNE 18:29:02 82° ESE 18:33:22 10° S
IRS-1A Rocket 4.3 18:23:52 10° SSE 18:29:43 85° ENE 18:35:29 10° NNW
ALOS 2.9 18:25:59 10° SE 18:30:07 32° ENE 18:34:16 10° N
Cosmos 1833 Rocket 3.2 18:25:53 10° N 18:30:57 34° ENE 18:36:00 10° SE
SPOT 3 Rocket 3.9 18:26:44 10° SE 18:31:37 41° ENE 18:36:29 10° N
Cosmos 2278 Rocket 4.0 18:28:25 10° SW 18:33:20 30° WNW 18:38:15 10° N
Cosmos 972 4.4 18:28:49 10° NNW 18:33:44 85° WSW 18:38:38 10° S
ERBS 2.6 18:33:09 10° NW 18:36:32 69° SW 18:39:55 10° SSE
SMAP 4.4 18:33:57 10° S 18:38:20 42° W 18:42:44 10° NNW
CZ-4 R/B 2.5 18:37:26 10° S 18:41:11 45° W 18:44:53 10° NNW
Meteor 1-11 Rocket 4.3 18:38:02 10° NNE 18:43:12 33° ENE 18:48:15 10° SE
USA 229 DEB 4.2 18:38:24 10° S 18:44:27 37° ESE 18:47:40 24° ENE
USA 229 4.2 18:38:31 10° S 18:44:33 36° ESE 18:47:43 24° ENE
Sich 1 Rocket 3.9 18:40:28 10° NNW 18:44:52 68° W 18:49:18 10° S
Cosmos 1441 Rocket 3.2 18:42:41 10° S 18:46:36 61° E 18:49:22 18° NNE
Cosmos 1606 4.1 18:43:08 10° SSW 18:46:41 38° W 18:50:14 10° NNW
Okean 1-7 3.7 18:44:44 10° SSW 18:48:59 56° W 18:53:19 10° N
Chunghua 1 4.5 18:45:45 10° WNW 18:49:26 65° NNE 18:50:23 44° ENE
NOAA 12 4.1 18:47:12 10° SSE 18:52:25 60° ENE 18:57:38 10° N
MOS 1 4.2 18:46:49 10° SSE 18:52:31 86° ENE 18:58:14 10° NNW
CZ-4C R/B 3.7 19:03:03 10° N 19:09:18 30° NE 19:09:18 30° NE
Thor Agena Rocket 3.4 19:08:07 33° NNE 19:10:21 64° ESE 19:15:27 10° S
YAOGAN 1 4.5 19:07:34 10° SSW 19:11:24 31° W 19:15:16 10° NW
ERS-2 4.3 19:14:01 10° SSW 19:17:13 28° W 19:20:24 10° NW
Cosmos 1602 3.8 19:14:06 10° N 19:17:56 74° W 19:21:46 10° S
Cosmos 2082 Rocket 2.1 19:13:34 10° NNW 19:19:16 87° WSW 19:24:53 10° SSE
Cosmos 405 Rocket 4.5 19:16:25 10° SW 19:19:51 31° W 19:23:02 11° NNW
ISS -1.2 19:21:14 10° SSW 19:21:54 15° SSW 19:21:54 15° SSW
FengYun 1-2 T 4.1 19:24:13 10° SSE 19:30:01 67° NE 19:35:10 10° N
OAO 3 Rocket 3.4 19:27:23 10° W 19:32:07 63° NNW 19:32:07 63° NNW
Cosmos 1634 Rocket 4.0 19:27:50 10° S 19:33:00 55° SE 19:33:00 55° SE
Tiangong 1 4.4 19:33:08 10° W 19:33:14 11° W 19:33:14 11° W
Cosmos 968 Rocket 4.3 19:30:58 10° SW 19:35:55 48° WNW 19:38:30 26° N
Nadezhda 4 Rocket 3.9 19:33:22 10° N 19:39:29 83° W 19:45:36 10° S
BREEZE-M R/B 3.9 19:36:23 10° NW 19:38:43 45° NW 19:38:43 45° NW
Cosmos 292 Rocket 4.4 19:41:24 10° NNW 19:45:13 50° WNW 19:45:13 50° WNW
Delta 168 4.4 19:54:27 10° WSW 19:59:45 58° S 19:59:45 58° S
Cosmos 2369 Rocket 3.3 20:03:51 10° SSW 20:07:10 36° SW 20:07:10 36° SW
CZ-4C R/B 4.3 20:50:56 10° NW 20:54:34 31° NW 20:54:34 31° NW
